COSMOS 1275 DEB, 12962

Orbit data source: Space-Track

COSMOS 1275 DEB, 12962 is space debris in LEO originally from a launch on Thu, 04 Jun 1981 UTC launched from the Plesetsk Missile And Space Complex (PKMTR). Debris objects in space refer to the collection of defunct objects orbiting the Earth. Examples of debris include non-operational satellites, rocket bodies, and fragments generated from explosions, collisions, or faulty payload assembly.

Loading next visibility...
Identifier
12962, 1981-053EH
Orbit
LEO
Country
Flag of CISCIS
Related business
Manufacturer
Unknown
Mission
Spacecraft
Bus & Motor
Unknown
Mass
Unknown
Launch date (UTC)
1981-06-04 (45 years ago)
Launch vehicle
Unknown
Launch site
Plesetsk Missile And Space Complex (PKMTR)
Object type
Payload
Rocket body
Debris
Shape & HBR
Unknown shape, 0.1 m
Radar Cross Section
Medium (>0.1 m² and <1 m²)

Expand to show TLE details & history
Last TLE update: 1 day ago

TLE from 1 day ago
0 COSMOS 1275 DEB
1 12962U 81053EH  26173.98510477  .00000928  00000-0  58362-3 0  9993
2 12962  82.9619   7.3037 0028112 100.1832 260.2513 14.03157154261320
Epoch: 2026-06-22T23:38Z
TLE epoch observation values (Epoch: 2026-06-22T23:38:33.052Z)
Latitude
0.00004°
Longitude
101.50282°
Altitude
889.335 km
Speed
7.406 km/s
True Right ascension
00h 29m 12s
True Declination
0° 00' 00"
Sunlit
Object was in daylight at epoch
Visualization orbit readout
Latitude
Unknown
Longitude
Unknown
Altitude
Unknown
Speed
Unknown
Apparent Right ascension
Unknown
Apparent Declination
Unknown
Sunlit
N/A
Visualization observer readout
Local Sidereal Time
14:50:47
Azimuth
Unknown
Elevation
Unknown
Doppler factor
Unknown
Orbital elements
Apogee altitude
900.396 km
Perigee altitude
859.588 km
Semi-major axis
7,258.129 km
Eccentricity
0.00281
Inclination
82.9619°
RAAN
7.3037°
Arg. of periapsis
100.1832°
True anomaly
259.934°
Mean anomaly
260.2513°
Eccentric anomaly
260.09263°
Mean motion
3.50999 °/min
Orbital period
102.56 mins
BSTAR
0.00058362
Loading maneuver chart data...
Computing Atmospheric mass density...

Documentation

Showing up to 5 results
|